Weather History for Ponca City, OK

Change the Weather History Date:

Thursday, March 21, 2013

  Actual Average Record
Temperature  
Mean Temperature 41 °F -  
Max Temperature 45 °F 63 °F 87 °F (1997)
Min Temperature 37 °F 37 °F 15 °F (1955)
Degree Days  
Heating Degree Days 24    
Moisture  
Dew Point 25 °F    
Average Humidity 54    
Maximum Humidity 76    
Minimum Humidity 39    
Precipitation  
Precipitation 0.00 in - - ()
Sea Level Pressure  
Sea Level Pressure 29.81 in    
Wind  
Wind Speed 17 mph (ESE)    
Max Wind Speed 24 mph    
Max Gust Speed 33 mph    
Visibility 10 miles    
Events      
Averages and records for this station are not official NWS values.
T = Trace of Precipitation, MM = Missing Value Source: NWS Daily Summary

Daily Weather History Graph

Daily Weather History Graph

Search for Another Location

Airport:

Trip Planner

Search our weather history database for the weather conditions in past years. The results will help you decide how hot, cold, wet, or windy it might be!

Date:

Astronomy

Mar. 21, 2013 Rise Set
Actual Time 7:30 AM CDT 7:41 PM CDT
Civil Twilight 7:04 AM CDT 8:07 PM CDT
Nautical Twilight 6:34 AM CDT 8:37 PM CDT
Astronomical Twilight 6:03 AM CDT 9:08 PM CDT
Moon 2:19 PM CDT (3/21) 3:45 AM CDT (3/21)
Length of Visible Light 13h 02m
Length of Day
12h 11m
Waxing Gibbous, 69% of the Moon is Illuminated
Mar 21
Waxing Gibbous
Mar 27
Full
Apr 2
Last Quarter
Apr 10
New
Apr 18
First Quarter

Hourly Weather History & Observations

Time (CDT) Temp. Windchill Dew Point Humidity Pressure Visibility Wind Dir Wind Speed Gust Speed Precip Events Conditions
12:53 AM 41.0 °F 33.1 °F 17.6 °F 39% 30.00 in 10.0 mi ESE 15.0 mph - N/A   Clear
1:53 AM 39.9 °F 31.1 °F 18.0 °F 41% 29.98 in 10.0 mi SE 17.3 mph - N/A   Clear
2:53 AM 39.0 °F 31.4 °F 18.0 °F 43% 29.96 in 10.0 mi ESE 12.7 mph - N/A   Clear
3:53 AM 39.0 °F 30.6 °F 18.0 °F 43% 29.93 in 10.0 mi ESE 15.0 mph - N/A   Clear
4:53 AM 37.9 °F 28.5 °F 18.0 °F 45% 29.91 in 10.0 mi ESE 17.3 mph 23.0 mph N/A   Clear
5:53 AM 37.9 °F 28.2 °F 19.0 °F 47% 29.90 in 10.0 mi ESE 18.4 mph - N/A   Clear
6:53 AM 39.0 °F 29.6 °F 19.0 °F 45% 29.88 in 10.0 mi ESE 18.4 mph 28.8 mph N/A   Clear
7:53 AM 39.0 °F 28.8 °F 19.0 °F 45% 29.87 in 10.0 mi ESE 21.9 mph 29.9 mph N/A   Mostly Cloudy
8:53 AM 41.0 °F 30.9 °F 18.0 °F 40% 29.84 in 10.0 mi ESE 24.2 mph 33.4 mph N/A   Overcast
9:53 AM 42.1 °F 33.1 °F 19.0 °F 40% 29.82 in 10.0 mi ESE 20.7 mph 33.4 mph N/A   Overcast
10:53 AM 43.0 °F 34.5 °F 21.0 °F 42% 29.81 in 10.0 mi SE 19.6 mph 28.8 mph N/A   Overcast
11:53 AM 44.1 °F 36.8 °F 24.1 °F 45% 29.80 in 10.0 mi ESE 16.1 mph 25.3 mph N/A   Overcast
12:53 PM 44.1 °F 37.1 °F 26.1 °F 49% 29.78 in 10.0 mi ESE 15.0 mph 25.3 mph N/A   Overcast
1:53 PM 45.0 °F 37.4 °F 27.0 °F 49% 29.75 in 10.0 mi ESE 18.4 mph 25.3 mph N/A   Overcast
2:53 PM 45.0 °F 36.9 °F 28.0 °F 52% 29.72 in 10.0 mi ESE 20.7 mph 28.8 mph N/A   Overcast
3:53 PM 44.1 °F 35.7 °F 28.0 °F 53% 29.72 in 10.0 mi ESE 20.7 mph 25.3 mph N/A   Overcast
4:53 PM 43.0 °F 34.0 °F 28.0 °F 56% 29.71 in 10.0 mi East 21.9 mph 27.6 mph N/A   Overcast
5:53 PM 41.0 °F 32.5 °F 28.0 °F 60% 29.72 in 10.0 mi East 17.3 mph 26.5 mph N/A   Overcast
6:53 PM 41.0 °F 31.6 °F 28.0 °F 60% 29.72 in 10.0 mi East 20.7 mph 28.8 mph N/A   Overcast
7:53 PM 39.9 °F 30.5 °F 28.9 °F 65% 29.74 in 10.0 mi ESE 19.6 mph 26.5 mph N/A   Overcast
8:53 PM 39.9 °F 31.1 °F 28.9 °F 65% 29.75 in 10.0 mi East 17.3 mph - N/A   Overcast
9:53 PM 39.9 °F 31.1 °F 30.9 °F 70% 29.75 in 10.0 mi East 17.3 mph 26.5 mph N/A   Overcast
10:26 PM 39.2 °F 29.8 °F 32.0 °F 75% 29.75 in 10.0 mi East 18.4 mph 23.0 mph N/A   Overcast
10:53 PM 39.0 °F 31.4 °F 32.0 °F 76% 29.76 in 10.0 mi East 12.7 mph 26.5 mph N/A   Overcast
11:20 PM 39.2 °F 32.0 °F 32.0 °F 75% 29.79 in 10.0 mi East 11.5 mph - N/A   Overcast
11:53 PM 39.0 °F 30.6 °F 32.0 °F 76% 29.79 in 10.0 mi East 15.0 mph - N/A   Overcast